Location: Asheville, NC
(35.6000°N, 82.5500°W)
Time: 13:05:37
(UTC-04:00)

Vanguard 2 - Pass Details

Date: 14 December 2017
Orbit: 553 x 2939 km, 32.9° (Epoch: 17 June)

Event Time Altitude Azimuth Distance (km) Brightness Sun altitude
Rises 16:22:59 0° 253° (WSW) 4,574 13.0 8.6°
Reaches altitude 10° 16:26:42 10° 251° (WSW) 3,206 12.5 8.0°
Maximum altitude 16:33:56 60° 173° (S) 965 8.4 6.8°
Drops below altitude 10° 16:38:35 10° 93° (E) 2,093 9.3 6.0°
Sets 16:40:35 0° 89° (E) 2,877 10.0 5.7°
